Weather in Klimovo

Russia / Bryansk Oblast     52°22′46″N   32°11′50″E
temp.,
°C
wind,
m/s
gust,
m/s
humid.,
%
clouds,
%
prec.,
mm/h
press.,
hPa
HPBL,
m
8 may, sat
sat800:00+10s61297100 0.4 1006550
03:00+9sw3797100 0.7 1005242
06:00+8wnw2598100 0.0 1005171
09:00+10wnw5687100 0.1 1006663
12:00+8nw6792100 1.2 1006491
15:00+7nw61092100 3.4 1008998
18:00+6nw71284100 2.7 10101145
21:00+6nw7128292 2.9 1013652
9 may, sun
sun900:00+3wnw613865 0.0 1016389
03:00+2nw514850 0.0 1017364
06:00+1wnw511892 0.0 1020282
09:00+7nnw58675 0.0 1022845
12:00+10nw57495 0.0 10231838
15:00+12nw584295 0.0 10242496
18:00+11nnw465216 0.0 10242128
21:00+6n22645 0.0 102710
10 may, mon
mon1000:00+5ese11656 0.0 102810
03:00+4ssw11653 0.0 102910
06:00+4sse22672 0.0 103015
09:00+10sse23565 0.0 1031395
12:00+13sse22471 0.0 10311274
15:00+16se10426 0.0 10301355
18:00+15ene2246100 0.0 10291215
21:00+9e33611 0.0 103018
11 may, tue
tue1100:00+8e22630 0.0 103011
03:00+6e33720 0.0 103029
06:00+6ene34780 0.0 103061
09:00+12ene57620 0.0 1029480
12:00+16ene68492 0.0 10281022
15:00+17e67452 0.0 10261264
18:00+17e58615 0.0 1026855
21:00+12e4108451 0.0 1025190
12 may, wed
wed1200:00+10ene37930 0.0 1025115
03:00+9ene37945 0.0 1024132
06:00+9ne512904 0.0 1023283
09:00+14e7117941 0.0 1021673
12:00+11ese6992100 0.4 1022621
15:00+14e567786 0.9 10211000
18:00+14e467716 0.2 1020563
21:00+10ene379314 0.2 1020135